Regional Weather Roundup
Issued by NWS Green Bay, WI

Home | Current Version | Previous Version | Text Only | Print | Product List | Glossary On
Versions: 1 2 3 4 5 6 7 8 9 10 11 12 13 14 15 16 17 18 19 20 21 22 23 24 25 26 27 28 29 30 31 32 33 34 35 36 37 38 39 40 41 42 43 44 45 46 47 48 49 50
000
ASUS43 KGRB 211159
RWRGRB

NORTH-CENTRAL AND NORTHEAST WISCONSIN REGIONAL WEATHER ROUNDUP
NATIONAL WEATHER SERVICE GREEN BAY WI
700 AM CDT THU AUG 21 2014

WIZ005-009-010>012-018-019-211300-
NORTH CENTRAL WISCONSIN

CITY           SKY/WX    TMP DP  RH WIND       PRES   REMARKS
IRONWOOD       NOT AVBL
MANITOWISH WTR NOT AVBL
ARBOR VITAE    NOT AVBL
EAGLE RIVER    NOT AVBL
LAND O LAKES   NOT AVBL
RHINELANDER    FOG       60  60 100 SE5       29.98R VSB 1/2
PHILLIPS       CLOUDY    59  59  99 SE3       29.94R
ANTIGO         NOT AVBL
TOMAHAWK       NOT AVBL
MERRILL        NOT AVBL
$$

WIZ013-073-211300-
NORTHEAST WISCONSIN

CITY           SKY/WX    TMP DP  RH WIND       PRES   REMARKS
IRON MOUNTAIN  CLOUDY    60  58  92 CALM      29.96S FOG
MARINETTE      CLOUDY    63  61  94 CALM      29.95S
$$

WIZ017-030-035>037-045-211300-
CENTRAL WISCONSIN

CITY           SKY/WX    TMP DP  RH WIND       PRES   REMARKS
MEDFORD        NOT AVBL
WAUSAU         MOCLDY    61  60  97 E7        29.94R FOG
MOSINEE        PTCLDY    61  61 100 E5        29.95S FOG
MARSHFIELD     CLOUDY    64  62  93 SE6       29.93R FOG
WISC RAPIDS    CLOUDY    64  62  93 SE6       29.93F
STEVENS POINT  NOT AVBL
WAUPACA        NOT AVBL
SHAWANO        CLOUDY    64  62  95 CALM      29.96R FOG
CLINTONVILLE   NOT AVBL
$$

WIZ038-039-048-051-211300-
FOX VALLEY

CITY           SKY/WX    TMP DP  RH WIND       PRES   REMARKS
NWS GREEN BAY  MOCLDY    63  62  97 CALM      29.95R FOG
APPLETON       MOCLDY    64  63  94 VRB5      29.96R
OSHKOSH        MOCLDY    65  62  90 SE3       29.94S
FOND DU LAC    PTCLDY    65  61  87 S5        29.95R
$$

WIZ022-050-052-211300-
EAST CENTRAL WISCONSIN

CITY           SKY/WX    TMP DP  RH WIND       PRES   REMARKS
STURGEON BAY   CLOUDY    61  57  88 CALM      29.97R VSB<1/4
MANITOWOC      NOT AVBL
SHEBOYGAN      PTCLDY    61  60  97 CALM      29.95R FOG
$$

LMZ563-521-522-541>543-211300-
LAKESHORE

STATION/POSITION TIME  TEMP    WIND        PRES    VSBY  WAVE
                       AIR SEA DIR/SP/G                  HT/PER
                 (UTC) (F)     (DEG/KT/KT) (MB)    (MI)  (FT/S)
SHEBOYGAN LKSHOR 1100   66 65  120/  4/  4 1013.9F
KEWAUNEE LKSHORE 1100   61      CALM  /  2 1013.5R
ALGOMA MARINA    1100             CALM       N/A
NORTHPORT PIER   1100   63     150/  2/  4 1014.6R
N MID LAKE BUOY  1100   63 63   90/  2/  2 1014.1R         0
S GREEN BAY BUOY 1100   66     VRB  4      1015.1R
CHAMBERS ISLAND  1100   63     160/  1/  4 1014.2S
MENOMINEE LKSHOR 1100   66     150/  3/  4 1015.0R
$$



USA.gov is the U.S. government's official web portal to all federal, state and local government web resources and services.